Torna al catalogo

STARLINK-34778

AttivoComunicazioniVLEO
NORAD 65021·PAYLOAD·🇺🇸 United States

Lanciato Jul 30, 2025 da Cape Canaveral Space Force Station

Loading…

Prossimi Passaggi (prossime 24 ore)

TLE

AggiornatoSource: CelesTrak SupGP

Epoca: Sep 14, 2026, 14:41 UTC

1 65021C 25161G   26257.61229167  .00051945  00000+0  15355-2 0  2576
2 65021  53.1567 135.4654 0001025 104.2343 192.7457 15.34350072    12

Traccia STARLINK-34778 in tempo reale con AllMySat

Download on the App Store